Find Kosmos-832

NORAD ID: 8896 Int'l Des: 1976-054 Owner: GUKOSR Country: SU operational
LEOCIRCULAR

Live Position

Loading 3D Globe...

About Kosmos-832

Description loading...

Upcoming Passes

Passes for default location (London). Set your location on the main map for personalized predictions.

Altitude History

Loading altitude history...

Two-Line Element Set

1 8896U 76054H 26106.80389918 -.00000024 00000-0 -65777-4 0 9998
2 8896 74.0033 36.1061 0024002 20.3749 7.5652 12.41321426258286
Epoch: Apr 16, 2026 • Age: 12 hours

Current Status

Altitude 1510.4 km
Velocity 7.12 km/s
Sub-Earth Point 69.70°N, 149.95°W
Type other

Most Searched